Location: Montbazon
(47.2835°N, 0.6999°E)
Time: 06:42:52
(UTC+00:00)

CZ-2C R/B - Pass Details

Date: 08 November 2025
Orbit: 664 x 773 km, 98.4° (Epoch: 12 December)

Event Time Altitude Azimuth Distance (km) Brightness Sun altitude
Rises 05:52:37 0° 358° (N) 3,176 5.5 -10.2°
Reaches altitude 10° 05:55:55 10° 335° (NNW) 2,270 4.6 -9.7°
Maximum altitude 05:58:28 14° 304° (NW) 2,002 4.1 -9.3°
Enters shadow 06:00:51 11° 275° (W) 2,251 4.3 -8.9°
